Mackall AAF, NC

5:46 AM EST on November 25, 2017 (GMT -0500)
Mackall Army Air Field

Weather History for KHFF - March, 2014

Change the Weather History Date:

Tuesday, March 11, 2014

  Actual Average Record
Temperature  
Mean Temperature 56 °F -  
Max Temperature 76 °F 59 °F 83 °F (2009)
Min Temperature 37 °F 39 °F 28 °F (2004)
Degree Days  
Heating Degree Days 9    
Growing Degree Days 6 (Base 50)    
Moisture  
Dew Point 41 °F    
Average Humidity 70    
Maximum Humidity 100    
Minimum Humidity 26    
Precipitation  
Precipitation 0.00 in - - ()
Sea Level Pressure  
Sea Level Pressure 29.79 in    
Wind  
Wind Speed 3 mph (SSW)    
Max Wind Speed 13 mph    
Max Gust Speed -    
Visibility 8 miles    
Events      
Averages and records for this station are not official NWS values.
T = Trace of Precipitation, MM = Missing Value Source: NWS Daily Summary

Daily Weather History Graph

Daily Weather History Graph

Search for Another Location

Airport or City:

Trip Planner

Search our weather history database for the weather conditions in past years. The results will help you decide how hot, cold, wet, or windy it might be!

Date:

Astronomy

Mar. 11, 2014 Rise Set
Actual Time 7:34 AM EDT 7:22 PM EDT
Civil Twilight 7:08 AM EDT 7:47 PM EDT
Nautical Twilight 6:39 AM EDT 8:16 PM EDT
Astronomical Twilight 6:10 AM EDT 8:46 PM EDT
Moon 3:05 PM EDT (3/11) 4:18 AM EDT (3/11)
Length of Visible Light 12h 38m
Length of Day
11h 48m
Waxing Gibbous, 78% of the Moon is Illuminated
Mar 11
Waxing Gibbous
Mar 16
Full
Mar 23
Last Quarter
Mar 30
New
Apr 7
First Quarter

Hourly Weather History & Observations

Time (EDT) Temp. Windchill Dew Point Humidity Pressure Visibility Wind Dir Wind Speed Gust Speed Precip Events Conditions
12:56 AM 47.3 °F - 39.9 °F 76% 29.85 in 12.0 mi Variable 1.2 mph - N/A   Clear
1:56 AM 51.8 °F - 40.6 °F 66% 29.84 in 12.0 mi WSW 4.6 mph - N/A   Clear
2:56 AM 43.5 °F - 41.2 °F 91% 29.84 in 9.0 mi West 1.2 mph - N/A   Clear
3:56 AM 43.0 °F - 41.2 °F 93% 29.81 in 4.0 mi NE 1.2 mph - N/A   Clear
4:56 AM 40.8 °F 38.8 °F 39.7 °F 96% 29.81 in 3.0 mi NW 3.5 mph - N/A   Clear
5:56 AM 41.0 °F - 39.0 °F 93% 29.80 in 3.0 mi NNW 1.2 mph - N/A   Clear
6:16 AM 39.2 °F - 37.4 °F 93% 29.79 in 2.5 mi NNW 2.3 mph - N/A   Clear
6:31 AM 37.4 °F 34.9 °F 37.4 °F 100% 29.80 in 3.0 mi WNW 3.5 mph - N/A   Clear
6:56 AM 39.2 °F - 37.6 °F 94% 29.81 in 4.0 mi Calm Calm - N/A   Clear
7:21 AM 39.2 °F - 37.4 °F 93% 29.80 in 2.0 mi North 2.3 mph - N/A   Clear
7:26 AM 39.2 °F - 37.4 °F 93% 29.80 in 1.9 mi North 2.3 mph - N/A   Clear
7:31 AM 37.4 °F - 37.4 °F 100% 29.80 in 2.0 mi North 1.2 mph - N/A   Clear
7:51 AM 37.4 °F - 37.4 °F 100% 29.81 in 3.0 mi North 2.3 mph - N/A   Clear
7:56 AM 38.1 °F - 37.8 °F 99% 29.82 in 2.8 mi North 2.3 mph - N/A   Clear
8:21 AM 39.2 °F 37.0 °F 39.2 °F 100% 29.82 in 3.0 mi SE 3.5 mph - N/A   Clear
8:56 AM 45.1 °F - 43.0 °F 92% 29.84 in 8.0 mi SE 1.2 mph - N/A   Clear
9:55 AM 54.1 °F - 43.9 °F 68% 29.84 in 10.0 mi Variable 2.3 mph - N/A   Clear
10:58 AM 61.7 °F - 45.1 °F 55% 29.85 in 10.0 mi Variable 2.3 mph - N/A   Clear
11:55 AM 67.6 °F - 37.4 °F 33% 29.84 in 10.0 mi Variable 2.3 mph - N/A   Clear
12:55 PM 72.3 °F - 39.6 °F 30% 29.80 in 10.0 mi SE 6.9 mph - N/A   Clear
1:55 PM 73.6 °F - 38.3 °F 28% 29.76 in 10.0 mi South 9.2 mph - N/A   Clear
2:55 PM 73.6 °F - 38.3 °F 28% 29.77 in 10.0 mi South 9.2 mph - N/A   Clear
3:55 PM 73.6 °F - 38.3 °F 28% 29.77 in 10.0 mi South 9.2 mph - N/A   Clear
4:38 PM 75.2 °F - 41.0 °F 29% 29.71 in 12.0 mi SSW 11.5 mph - N/A   Clear
4:56 PM 75.7 °F - 38.8 °F 26% 29.72 in 12.0 mi SSW 12.7 mph - N/A   Clear
5:56 PM 74.7 °F - 41.4 °F 30% 29.72 in 12.0 mi SSW 8.1 mph - N/A   Clear
6:56 PM 70.5 °F - 46.6 °F 42% 29.72 in 12.0 mi South 4.6 mph - N/A   Clear
7:56 PM 63.5 °F - 48.2 °F 57% 29.73 in 12.0 mi South 3.5 mph - N/A   Clear
8:56 PM 60.1 °F - 46.9 °F 62% 29.74 in 9.0 mi South 2.3 mph - N/A   Clear
9:56 PM 55.8 °F - 47.5 °F 74% 29.72 in 12.0 mi SSE 2.3 mph - N/A   Partly Cloudy
10:56 PM 53.8 °F - 47.5 °F 79% 29.73 in 12.0 mi SSE 3.5 mph - N/A   Clear
11:56 PM 53.8 °F - 47.5 °F 79% 29.72 in 10.0 mi South 2.3 mph - N/A   Scattered Clouds